Weather History for Moses Lake, WA

Change the Weather History Date:

Tuesday, June 18, 2013

  Actual Average Record
Temperature  
Mean Temperature 61 °F 66 °F  
Max Temperature 64 °F 80 °F 90 °F (1982)
Min Temperature 57 °F 52 °F 44 °F (2006)
Degree Days  
Heating Degree Days 4 1  
Month to date heating degree days 24 41  
Since 1 June heating degree days 24 41  
Since 1 July heating degree days 5305 5868  
Cooling Degree Days 0 3  
Month to date cooling degree days 62 38  
Year to date cooling degree days 112 63  
Since 1 June cooling degree days 62 38  
Growing Degree Days 17 (Base 50)    
Moisture  
Dew Point 55 °F    
Average Humidity 83    
Maximum Humidity 93    
Minimum Humidity 73    
Precipitation  
Precipitation 0.66 in 0.03 in 0.66 in (2013)
Month to date precipitation 0.90 0.56  
Year to date precipitation 2.98 4.58  
Sea Level Pressure  
Sea Level Pressure 29.90 in    
Wind  
Wind Speed 6 mph (SSW)    
Max Wind Speed 12 mph    
Max Gust Speed 15 mph    
Visibility 9 miles    
Events Rain    
T = Trace of Precipitation, MM = Missing Value Source: NWS Daily Summary

Daily Weather History Graph

Daily Weather History Graph

Search for Another Location

Airport:

Trip Planner

Search our weather history database for the weather conditions in past years. The results will help you decide how hot, cold, wet, or windy it might be!

Date:

Astronomy

Jun. 18, 2013 Rise Set
Actual Time 5:00 AM PDT 8:56 PM PDT
Civil Twilight 4:20 AM PDT 9:36 PM PDT
Nautical Twilight 3:25 AM PDT 10:31 PM PDT
Astronomical Twilight 2:00 AM PDT 11:56 PM PDT
Moon 3:31 PM PDT (6/18) 1:29 AM PDT (6/18)
Length of Visible Light 17h 15m
Length of Day
15h 55m
Waxing Gibbous, 72% of the Moon is Illuminated
Jun 18
Waxing Gibbous
Jun 23
Full
Jun 29
Last Quarter
Jul 8
New
Jul 15
First Quarter

Hourly Weather History & Observations

Time (PDT) Temp. Dew Point Humidity Pressure Visibility Wind Dir Wind Speed Gust Speed Precip Events Conditions
12:52 AM 64.0 °F 57.0 °F 78% 29.86 in 10.0 mi Calm Calm - 0.00 in   Overcast
1:52 AM 64.0 °F 55.0 °F 73% 29.87 in 10.0 mi WSW 3.5 mph - N/A   Overcast
2:52 AM 62.1 °F 57.9 °F 86% 29.89 in 8.0 mi SSE 3.5 mph - 0.03 in Rain Light Rain
3:52 AM 62.1 °F 55.0 °F 78% 29.88 in 10.0 mi SW 4.6 mph - 0.01 in   Overcast
4:52 AM 61.0 °F 55.9 °F 83% 29.89 in 10.0 mi ENE 6.9 mph - 0.03 in Rain Light Rain
5:52 AM 59.0 °F 57.0 °F 93% 29.91 in 7.0 mi South 4.6 mph - 0.10 in Rain Rain
6:52 AM 57.9 °F 55.9 °F 93% 29.91 in 10.0 mi SSE 5.8 mph - 0.07 in Rain Light Rain
7:52 AM 59.0 °F 55.0 °F 87% 29.91 in 10.0 mi South 8.1 mph - 0.01 in   Overcast
8:52 AM 60.1 °F 54.0 °F 80% 29.91 in 10.0 mi South 9.2 mph - N/A   Overcast
8:58 AM 77.0 °F 62.6 °F 61% 29.99 in 15.0 mi NNW 8.1 mph - N/A   Scattered Clouds
9:52 AM 60.1 °F 55.0 °F 83% 29.91 in 10.0 mi SSW 9.2 mph - 0.01 in Rain Light Rain
10:52 AM 59.0 °F 54.0 °F 83% 29.93 in 10.0 mi SW 8.1 mph - 0.04 in Rain Light Rain
11:52 AM 57.0 °F 54.0 °F 89% 29.94 in 6.0 mi South 5.8 mph - 0.11 in Rain Rain
12:52 PM 57.9 °F 55.0 °F 90% 29.95 in 3.0 mi SE 6.9 mph - 0.07 in Rain Light Rain
1:52 PM 57.0 °F 54.0 °F 89% 29.94 in 4.0 mi ENE 5.8 mph - 0.08 in Rain Light Rain
2:13 PM 57.2 °F 55.4 °F 94% 29.94 in 6.0 mi East 6.9 mph - 0.02 in Rain Light Rain
2:52 PM 57.0 °F 53.1 °F 87% 29.94 in 5.0 mi East 5.8 mph - 0.05 in Rain Light Rain
2:59 PM 57.2 °F 53.6 °F 88% 29.94 in 6.0 mi East 6.9 mph - 0.00 in Rain Light Rain
3:52 PM 57.0 °F 53.1 °F 87% 29.92 in 10.0 mi SE 3.5 mph - 0.02 in Rain Light Rain
4:52 PM 57.9 °F 53.1 °F 84% 29.89 in 10.0 mi ESE 3.5 mph - 0.02 in Rain Light Rain
5:52 PM 57.9 °F 54.0 °F 87% 29.88 in 10.0 mi West 5.8 mph - 0.01 in Rain Light Rain
6:15 PM 57.2 °F 55.4 °F 94% 29.87 in 10.0 mi West 4.6 mph - 0.00 in   Overcast
6:41 PM 57.2 °F 55.4 °F 94% 29.86 in 10.0 mi WSW 6.9 mph - 0.00 in   Overcast
6:52 PM 57.9 °F 55.0 °F 90% 29.87 in 10.0 mi WSW 3.5 mph - 0.00 in   Overcast
7:52 PM 57.9 °F 55.0 °F 90% 29.87 in 10.0 mi WSW 5.8 mph - N/A   Overcast
8:52 PM 57.9 °F 54.0 °F 87% 29.87 in 10.0 mi West 4.6 mph - N/A   Overcast
9:52 PM 57.9 °F 54.0 °F 87% 29.88 in 10.0 mi SSW 6.9 mph - N/A   Overcast
10:52 PM 57.0 °F 53.1 °F 87% 29.85 in 10.0 mi SW 6.9 mph - N/A   Scattered Clouds
11:52 PM 57.0 °F 53.1 °F 87% 29.85 in 10.0 mi SSW 3.5 mph - N/A   Clear